User: anonymous   Login
Location: Unspecified
(0.0000°N, 0.0000°E)
Time: 14:20:25
(UTC+00:00)
Language:

UHF F/O F4 - Orbit

View from above orbital plane
View from above orbital plane
View from above satellite
View from above satellite

Ground track
Ground track

The orbit data is extracted from the following two-line orbital elements,

1 23467U 95003A   16340.15190032 0.00000000  00000-0  00000-0 0    07
2 23467   9.4567  28.8622 0004228 219.5912 140.4401  1.00270000    02
Epoch (UTC): 05 December 2016 03:38:44
Eccentricity: 0.0004228
inclination: 9.4567°
perigee height: 35769 km
apogee height: 35804 km
right ascension of ascending node: 28.8622°
argument of perigee: 219.5912°
revolutions per day: 1.00270000
mean anomaly at epoch: 140.4401°
orbit number at epoch: 0

The dashed part of the orbit path shows where the satellite is in the earth's shadow,  

DLR